CW5920 Weather Reports


Display with metric or nautical units.
time (UTC)temp
F
wind
direction
speed
MPH
gust
MPH
rain 1hr
in
rain 24hr
in
rain mn
in
humidity
%
barometer
mb
20260510091017 71 23 2.0 5.0 0.00 0.00 0.00 88 1011.5
20260510090017 71 0.0 2.0 0.00 0.00 0.00 87 1011.6
20260510085016 72 338 1.0 3.0 0.00 0.00 0.00 87 1011.3
20260510084036 72 0.0 2.0 0.00 0.00 0.00 87 1011.0
20260510083016 72 0.0 1.0 0.00 0.00 0.00 87 1010.7
20260510082016 72 0.0 1.0 0.00 0.00 0.00 87 1010.3
20260510081016 73 0.0 0.0 0.00 0.00 0.00 86 1010.3
20260510080056 73 113 2.0 4.0 0.00 0.00 0.00 86 1010.1
20260510075016 73 113 3.0 6.0 0.00 0.00 0.00 86 1010.1
20260510074016 73 113 4.0 8.0 0.00 0.00 0.00 85 1010.1
20260510073016 74 113 2.0 4.0 0.00 0.00 0.00 84 1010.4
20260510072016 74 90 4.0 8.0 0.00 0.00 0.00 83 1010.5
20260510071016 75 90 2.0 7.0 0.00 0.00 0.00 82 1010.8
20260510070016 75 90 4.0 7.0 0.00 0.00 0.00 81 1010.8
20260510065016 76 135 2.0 7.0 0.00 0.00 0.00 80 1010.9
20260510064016 76 135 4.0 10.0 0.00 0.00 0.00 80 1010.3
20260510063016 76 135 8.0 12.0 0.00 0.00 0.00 79 1009.7
20260510062016 76 135 8.0 11.0 0.00 0.00 0.00 77 1009.7
20260510061016 76 135 10.0 14.0 0.00 0.00 0.00 76 1009.4
20260510060016 76 135 8.0 12.0 0.00 0.00 0.00 75 1009.3
20260510055036 76 135 9.0 14.0 0.00 0.00 0.00 75 1009.2
20260510054016 76 135 9.0 14.0 0.00 0.00 0.00 75 1009.1
20260510053036 75 135 7.0 12.0 0.00 0.00 0.00 75 1009.0
20260510052016 75 113 5.0 10.0 0.00 0.00 0.00 74 1008.9
20260510051016 75 113 5.0 8.0 0.00 0.00 0.00 73 1008.8
20260510050016 75 113 6.0 9.0 0.00 0.00 0.00 72 1008.8
20260510045016 75 113 7.0 10.0 0.00 0.00 0.00 73 1008.8
20260510044016 75 113 8.0 13.0 0.00 0.00 0.00 73 1009.1
20260510043016 75 113 6.0 10.0 0.00 0.00 0.00 74 1009.1
20260510042016 75 113 7.0 11.0 0.00 0.00 0.00 74 1009.0
20260510041016 75 113 6.0 10.0 0.00 0.00 0.00 73 1009.2
20260510040016 75 90 6.0 9.0 0.00 0.00 0.00 72 1009.1
20260510035036 75 113 5.0 8.0 0.00 0.00 0.00 71 1009.2
20260510034016 75 90 4.0 7.0 0.00 0.00 0.00 71 1009.3
20260510033036 75 90 5.0 8.0 0.00 0.00 0.00 70 1009.2
20260510032016 75 90 5.0 8.0 0.00 0.00 0.00 70 1009.2
20260510031016 75 90 5.0 8.0 0.00 0.00 0.00 71 1009.0
20260510030036 75 90 3.0 7.0 0.00 0.00 0.00 70 1008.9
20260510025056 76 90 3.0 6.0 0.00 0.00 0.00 70 1008.9
20260510024016 76 90 2.0 3.0 0.00 0.00 0.00 69 1008.7
20260510023016 77 90 2.0 3.0 0.00 0.00 0.00 68 1008.7
20260510022016 77 90 2.0 3.0 0.00 0.00 0.00 67 1008.6
20260510021016 77 90 2.0 3.0 0.00 0.00 0.00 67 1008.4
20260510020016 78 90 2.0 3.0 0.00 0.00 0.00 66 1008.3
20260510015016 78 90 2.0 3.0 0.00 0.00 0.00 66 1008.3
20260510014016 79 90 1.0 3.0 0.00 0.00 0.00 64 1008.1
20260510013016 79 90 2.0 4.0 0.00 0.00 0.00 63 1007.9
20260510012016 80 90 2.0 4.0 0.00 0.00 0.00 62 1007.8
20260510011016 81 90 2.0 3.0 0.00 0.00 0.00 61 1007.8
20260510010016 82 90 2.0 4.0 0.00 0.00 0.00 60 1007.8
20260510005016 83 90 2.0 4.0 0.00 0.00 0.00 59 1007.7
20260510004036 84 90 2.0 4.0 0.00 0.00 0.00 59 1007.7
20260510003036 84 90 1.0 4.0 0.00 0.00 0.00 58 1007.6
20260510002016 85 90 1.0 3.0 0.00 0.00 0.00 56 1007.7
20260510001036 85 90 2.0 4.0 0.00 0.00 0.00 56 1007.7
20260510000016 86 90 2.0 5.0 0.00 0.00 0.00 54 1007.8
20260509235016 86 90 2.0 7.0 0.00 0.00 0.00 54 1007.9
20260509234016 86 90 3.0 6.0 0.00 0.00 0.00 53 1007.8
20260509233036 87 135 1.0 4.0 0.00 0.00 0.00 52 1007.9
20260509232016 87 113 1.0 4.0 0.00 0.00 0.00 50 1007.8
20260509231016 87 113 1.0 6.0 0.00 0.00 0.00 51 1007.9
20260509230016 87 113 2.0 6.0 0.00 0.00 0.00 50 1008.0
20260509225016 88 113 4.0 7.0 0.00 0.00 0.00 50 1007.9
20260509224016 88 135 1.0 5.0 0.00 0.00 0.00 50 1007.9
20260509223016 88 113 1.0 6.0 0.00 0.00 0.00 49 1008.0
20260509222016 88 113 3.0 6.0 0.00 0.00 0.00 49 1007.9
20260509221016 89 90 1.0 6.0 0.00 0.00 0.00 49 1008.0
20260509220016 89 68 2.0 7.0 0.00 0.00 0.00 49 1008.1
20260509215016 90 90 3.0 7.0 0.00 0.00 0.00 50 1008.2
20260509214016 90 135 3.0 8.0 0.00 0.00 0.00 48 1008.2
20260509213016 90 0.0 1.0 0.00 0.00 0.00 46 1008.3
20260509212016 90 135 1.0 3.0 0.00 0.00 0.00 47 1008.5
20260509211016 90 113 1.0 5.0 0.00 0.00 0.00 46 1008.6
20260509210016 90 90 3.0 8.0 0.00 0.00 0.00 50 1008.7
20260509205016 90 0.0 2.0 0.00 0.00 0.00 47 1008.8
20260509204016 90 90 1.0 4.0 0.00 0.00 0.00 47 1009.0
20260509203016 91 0.0 1.0 0.00 0.00 0.00 46 1009.2
20260509202036 91 0.0 4.0 0.00 0.00 0.00 45 1009.3
20260509201016 91 293 1.0 8.0 0.00 0.00 0.00 46 1009.3
20260509200015 91 293 1.0 6.0 0.00 0.01 0.00 48 1009.6
20260509195015 90 293 1.0 9.0 0.00 0.04 0.00 46 1009.6
20260509194016 90 293 2.0 7.0 0.00 0.05 0.00 47 1009.7
20260509193016 90 0.0 1.0 0.00 0.05 0.00 46 1009.9
20260509192036 89 0.0 2.0 0.00 0.05 0.00 48 1010.0
20260509191016 88 0.0 5.0 0.00 0.05 0.00 50 1009.9
20260509190016 87 293 1.0 7.0 0.00 0.05 0.00 52 1010.0
20260509185015 87 270 2.0 7.0 0.00 0.05 0.00 52 1010.0
20260509184015 87 293 2.0 7.0 0.00 0.05 0.00 53 1010.1
20260509183016 87 293 3.0 9.0 0.00 0.05 0.00 52 1010.2
20260509182015 88 293 1.0 8.0 0.00 0.05 0.00 52 1010.5
20260509181015 87 293 1.0 6.0 0.00 0.05 0.00 53 1010.5
20260509180016 87 270 2.0 7.0 0.00 0.05 0.00 53 1010.7
20260509175016 86 315 2.0 8.0 0.00 0.05 0.00 54 1010.7
20260509174016 85 0.0 3.0 0.00 0.05 0.00 57 1010.8
20260509173016 85 293 4.0 11.0 0.00 0.05 0.00 54 1010.9
20260509172016 85 270 2.0 8.0 0.00 0.05 0.00 55 1011.0
20260509171016 84 0.0 6.0 0.00 0.05 0.00 58 1011.1
20260509170016 84 293 1.0 5.0 0.00 0.05 0.00 58 1011.1
20260509165016 83 270 1.0 6.0 0.00 0.05 0.00 61 1011.1
20260509164016 83 270 1.0 9.0 0.00 0.05 0.00 59 1011.2
20260509163016 83 0.0 6.0 0.00 0.05 0.00 62 1011.3
20260509162016 82 0.0 3.0 0.00 0.05 0.00 63 1011.2
20260509161016 82 270 5.0 10.0 0.00 0.05 0.00 61 1011.2
20260509160015 82 270 1.0 6.0 0.00 0.05 0.00 62 1011.3
20260509155036 81 270 1.0 6.0 0.00 0.05 0.00 64 1011.2
20260509154036 80 293 1.0 4.0 0.00 0.05 0.00 66 1011.1
20260509153016 79 293 1.0 4.0 0.00 0.05 0.00 67 1011.0
20260509152015 79 293 4.0 8.0 0.00 0.05 0.00 67 1010.9
20260509151016 78 293 2.0 8.0 0.00 0.05 0.00 67 1010.9
20260509150036 77 315 5.0 9.0 0.00 0.05 0.00 69 1010.9
20260509145016 76 293 7.0 11.0 0.00 0.05 0.00 69 1011.0
20260509144016 75 338 5.0 9.0 0.00 0.05 0.00 75 1011.0
20260509143015 74 315 6.0 11.0 0.00 0.05 0.00 78 1011.0
20260509142035 73 270 4.0 9.0 0.00 0.05 0.00 81 1011.0
20260509141015 73 293 3.0 8.0 0.00 0.05 0.00 83 1011.1
20260509140016 72 270 3.0 8.0 0.00 0.05 0.00 83 1011.1
20260509135016 71 293 2.0 9.0 0.00 0.05 0.00 83 1011.1
20260509134015 71 270 3.0 8.0 0.00 0.05 0.00 84 1011.0
20260509133036 71 0.0 1.0 0.00 0.05 0.00 84 1011.0
20260509132016 70 293 2.0 8.0 0.00 0.05 0.00 85 1010.8
20260509131015 70 0.0 0.0 0.00 0.05 0.00 86 1010.7
20260509130015 69 0.0 1.0 0.00 0.05 0.00 87 1010.7
20260509125015 68 0.0 2.0 0.00 0.05 0.00 87 1010.7
20260509124015 67 0.0 0.0 0.00 0.05 0.00 88 1010.7
20260509123015 66 0.0 0.0 0.00 0.05 0.00 87 1010.5
20260509122016 66 0.0 3.0 0.00 0.05 0.00 87 1010.5
20260509121016 66 0.0 0.0 0.00 0.05 0.00 86 1010.4
20260509120016 65 0.0 0.0 0.00 0.05 0.00 86 1010.4
20260509115035 66 0.0 0.0 0.00 0.05 0.00 84 1010.4
20260509114015 66 0.0 0.0 0.00 0.05 0.00 83 1010.1
20260509113015 67 0.0 0.0 0.00 0.05 0.00 83 1009.9
20260509112015 67 0.0 1.0 0.00 0.05 0.00 82 1009.9
20260509111015 67 0.0 0.0 0.00 0.05 0.00 83 1009.9
20260509110015 68 0.0 0.0 0.00 0.05 0.00 84 1009.9
20260509105016 68 0.0 3.0 0.00 0.05 0.00 86 1009.8
20260509104015 68 293 3.0 11.0 0.00 0.05 0.00 87 1009.7
20260509103015 70 270 5.0 15.0 0.00 0.05 0.00 91 1009.7
20260509102015 71 293 2.0 7.0 0.00 0.05 0.00 92 1009.7
20260509101016 71 293 7.0 12.0 0.00 0.05 0.00 92 1009.6
20260509100015 71 293 3.0 10.0 0.00 0.05 0.00 93 1008.9
20260509095035 71 158 5.0 12.0 0.00 0.05 0.00 93 1007.7
20260509094035 71 135 10.0 19.0 0.00 0.05 0.00 93 1007.1
20260509093016 71 135 11.0 19.0 0.00 0.05 0.00 93 1006.8
20260509092016 71 135 12.0 23.0 0.00 0.05 0.00 93 1006.4